Big Bear Station Historical Data
Daily Summary for October 4, 2017 Units:  English    Metric   Both
« Previous Day
Next Day »
Daily Weekly Monthly Yearly Custom
  High: Low: Average:
Temperature: 69.6 °F 30.7 °F 47.4 °F
Dew Point: 30.1 °F 0.4 °F 18.2 °F
Humidity: 73 % 11 % 36 %
Wind Speed: 7.3 mph 0.0 mph 1.4 mph
Wind Gust: -999.0 mph - -
Wind:- - WSW
Pressure: 30.19 in 23.54 in -
Precipitation: 0.00 in    
Historical Graphs
 
 
Tabular Data for October 4, 2017
Time Temperature Dew Point Pressure Wind Wind Speed Wind Gust Humidity Rainfall Rate (Hourly)
00:05 43.9 °F 1.8 °F 30.09 in SSE 2.7 mph -999.0 mph 17 % 0 in
00:20 43.7 °F 0.4 °F 30.09 in Calm   -999.0 mph 16 % 0 in
00:36 41.2 °F 4.2 °F 30.09 in SSE 3.2 mph -999.0 mph 21 % 0 in
00:51 40.8 °F 2.8 °F 30.09 in SSE 2.2 mph -999.0 mph 20 % 0 in
01:07 39.0 °F 2.3 °F 30.09 in SSW 2.2 mph -999.0 mph 21 % 0 in
01:22 38.3 °F 1.7 °F 30.10 in SSE 2.2 mph -999.0 mph 21 % 0 in
01:37 37.8 °F 6.8 °F 30.10 in South 1.1 mph -999.0 mph 27 % 0 in
01:53 37.0 °F 2.6 °F 30.11 in Calm   -999.0 mph 23 % 0 in
02:08 37.0 °F 6.9 °F 30.12 in Calm   -999.0 mph 28 % 0 in
02:23 36.1 °F 1.8 °F 30.12 in Calm   -999.0 mph 23 % 0 in
02:38 36.0 °F 6.0 °F 30.12 in SSE 1.7 mph -999.0 mph 28 % 0 in
02:54 35.8 °F 14.4 °F 30.12 in South 1.7 mph -999.0 mph 41 % 0 in
03:09 35.1 °F 16.9 °F 30.12 in Calm   -999.0 mph 47 % 0 in
03:24 35.1 °F 19.7 °F 30.12 in Calm   -999.0 mph 53 % 0 in
03:40 34.0 °F 17.8 °F 30.12 in SSE 1.7 mph -999.0 mph 51 % 0 in
03:55 33.4 °F 15.8 °F 30.12 in Calm   -999.0 mph 48 % 0 in
04:10 33.3 °F 12.7 °F 30.13 in Calm   -999.0 mph 42 % 0 in
04:25 32.7 °F 11.0 °F 30.13 in Calm   -999.0 mph 40 % 0 in
04:40 32.7 °F 10.4 °F 30.13 in Calm   -999.0 mph 39 % 0 in
04:56 32.4 °F 12.4 °F 30.13 in Calm   -999.0 mph 43 % 0 in
05:11 31.6 °F 14.1 °F 30.14 in Calm   -999.0 mph 48 % 0 in
05:26 31.6 °F 12.7 °F 30.14 in Calm   -999.0 mph 45 % 0 in
05:41 31.6 °F 11.6 °F 30.14 in Calm   -999.0 mph 43 % 0 in
05:56 31.8 °F 14.3 °F 30.14 in Calm   -999.0 mph 48 % 0 in
06:12 31.3 °F 15.7 °F 30.15 in Calm   -999.0 mph 52 % 0 in
06:27 30.9 °F 15.3 °F 30.15 in SSE 1.1 mph -999.0 mph 52 % 0 in
06:42 31.1 °F 12.7 °F 30.15 in Calm   -999.0 mph 46 % 0 in
06:57 30.7 °F 13.8 °F 30.15 in Calm   -999.0 mph 49 % 0 in
07:12 30.9 °F 16.6 °F 30.16 in Calm   -999.0 mph 55 % 0 in
07:28 31.1 °F 18.8 °F 30.16 in Calm   -999.0 mph 60 % 0 in
07:43 31.1 °F 20.3 °F 30.16 in Calm   -999.0 mph 64 % 0 in
07:58 32.2 °F 22.1 °F 30.17 in Calm   -999.0 mph 66 % 0 in
08:13 33.4 °F 23.6 °F 30.17 in Calm   -999.0 mph 67 % 0 in
08:29 33.8 °F 24.7 °F 30.17 in Calm   -999.0 mph 69 % 0 in
08:44 34.3 °F 26.5 °F 30.17 in Calm   -999.0 mph 73 % 0 in
08:59 36.7 °F 27.1 °F 30.18 in Calm   -999.0 mph 68 % 0 in
09:14 38.8 °F 26.1 °F 30.18 in Calm   -999.0 mph 60 % 0 in
09:29 41.2 °F 28.4 °F 30.18 in Calm   -999.0 mph 60 % 0 in
09:45 43.9 °F 30.1 °F 30.18 in Calm   -999.0 mph 58 % 0 in
10:15 51.4 °F 23.2 °F 30.18 in NW 1.7 mph -999.0 mph 33 % 0 in
10:30 58.5 °F 12.4 °F 30.18 in NE 1.7 mph -999.0 mph 16 % 0 in
10:46 63.9 °F 15.3 °F 30.18 in North 3.2 mph -999.0 mph 15 % 0 in
11:01 66.4 °F 10.2 °F 30.18 in NNE 2.7 mph -999.0 mph 11 % 0 in
11:17 67.1 °F 19.4 °F 30.18 in NNW 3.7 mph -999.0 mph 16 % 0 in
11:32 67.3 °F 16.4 °F 30.19 in NW 4.2 mph -999.0 mph 14 % 0 in
11:47 67.6 °F 16.7 °F 30.18 in NNW 4.2 mph -999.0 mph 14 % 0 in
12:02 68.7 °F 17.6 °F 30.18 in NNW 3.2 mph -999.0 mph 14 % 0 in
12:18 69.4 °F 14.6 °F 30.18 in WNW 2.2 mph -999.0 mph 12 % 0 in
12:33 69.6 °F 19.9 °F 30.19 in NW 4.7 mph -999.0 mph 15 % 0 in
12:48 69.1 °F 17.9 °F 30.19 in NW 3.7 mph -999.0 mph 14 % 0 in
13:03 69.6 °F 19.9 °F 30.18 in NNW 3.2 mph -999.0 mph 15 % 0 in
13:34 69.1 °F 22.4 °F 30.18 in West 2.7 mph -999.0 mph 17 % 0 in
13:49 68.7 °F 20.7 °F 30.18 in NNW 4.2 mph -999.0 mph 16 % 0 in
14:04 69.1 °F 19.5 °F 30.18 in NNW 3.7 mph -999.0 mph 15 % 0 in
14:19 67.6 °F 18.3 °F 30.18 in NW 7.3 mph -999.0 mph 15 % 0 in
14:35 68.2 °F 18.8 °F 30.18 in NW 4.7 mph -999.0 mph 15 % 0 in
14:50 67.6 °F 19.8 °F 30.17 in WNW 5.3 mph -999.0 mph 16 % 0 in
15:05 67.3 °F 24.8 °F 30.17 in NW 4.2 mph -999.0 mph 20 % 0 in
15:20 67.3 °F 22.3 °F 30.17 in West 5.3 mph -999.0 mph 18 % 0 in
15:35 65.8 °F 23.6 °F 30.17 in NW 6.8 mph -999.0 mph 20 % 0 in
15:51 65.8 °F 22.4 °F 30.17 in WNW 5.8 mph -999.0 mph 19 % 0 in
16:06 65.3 °F 22.0 °F 30.17 in WNW 2.7 mph -999.0 mph 19 % 0 in
16:21 64.8 °F 23.9 °F 30.17 in NNW 3.7 mph -999.0 mph 21 % 0 in
16:36 63.7 °F 24.1 °F 30.16 in WNW 2.2 mph -999.0 mph 22 % 0 in
16:51 63.1 °F 23.6 °F 30.16 in WNW 2.7 mph -999.0 mph 22 % 0 in
17:22 61.9 °F 23.7 °F 30.16 in SW 3.2 mph -999.0 mph 23 % 0 in
17:52 59.2 °F 26.1 °F 30.16 in Calm   -999.0 mph 28 % 0 in
18:07 57.9 °F 26.6 °F 30.17 in Calm   -999.0 mph 30 % 0 in
18:23 56.7 °F 24.8 °F 30.17 in SSE 1.1 mph -999.0 mph 29 % 0 in
18:38 54.3 °F 21.9 °F 30.17 in Calm   -999.0 mph 28 % 0 in
18:53 53.1 °F 22.5 °F 30.17 in Calm   -999.0 mph 30 % 0 in
19:08 51.6 °F 21.2 °F 30.18 in Calm   -999.0 mph 30 % 0 in
19:24 50.4 °F 20.9 °F 30.18 in Calm   -999.0 mph 31 % 0 in
19:39 49.5 °F 20.8 °F 30.18 in Calm   -999.0 mph 32 % 0 in
19:54 48.4 °F 20.6 °F 30.18 in Calm   -999.0 mph 33 % 0 in
20:24 46.6 °F 19.7 °F 23.54 in Calm   -999.0 mph 34 % 0 in
20:40 45.7 °F 20.9 °F 30.18 in Calm   -999.0 mph 37 % 0 in
20:55 44.8 °F 21.9 °F 30.18 in Calm   -999.0 mph 40 % 0 in
21:10 44.1 °F 23.6 °F 30.18 in Calm   -999.0 mph 44 % 0 in
21:25 43.3 °F 24.9 °F 30.18 in Calm   -999.0 mph 48 % 0 in
21:40 42.6 °F 24.3 °F 30.19 in Calm   -999.0 mph 48 % 0 in
21:56 42.1 °F 23.8 °F 30.19 in Calm   -999.0 mph 48 % 0 in
22:11 41.5 °F 21.7 °F 30.18 in Calm   -999.0 mph 45 % 0 in
22:27 41.0 °F 21.8 °F 30.18 in Calm   -999.0 mph 46 % 0 in
22:42 40.6 °F 24.8 °F 30.18 in Calm   -999.0 mph 53 % 0 in
22:57 40.5 °F 24.2 °F 30.18 in Calm   -999.0 mph 52 % 0 in
23:12 39.9 °F 24.6 °F 30.18 in Calm   -999.0 mph 54 % 0 in
23:27 39.6 °F 24.8 °F 30.18 in Calm   -999.0 mph 55 % 0 in
23:43 39.6 °F 27.3 °F 30.18 in Calm   -999.0 mph 61 % 0 in
23:58 38.7 °F 26.4 °F 30.18 in Calm   -999.0 mph 61 % 0 in
Big Bear CA Weather
Compliments of Weather Underground - 1.5 mb